Latest Weather Observations for Yamba

IDN60801

Issued at 10:33 am EDT Monday 2 March 2015 (issued every 30 minutes, with the page automatically refreshed every 10 minutes)

About weather observations | Map of weather stations | Latest weather observations for NSW | Other Formats
Station Details ID: 058012 Name: YAMBA PILOT STATION Lat: -29.43 Lon: 153.36 Height: 27.4 m
Data from the previous 72 hours. | See also: Recent months at Yamba
Date/Time
EDT
Temp
°C
App
Temp
°C
Dew
Point
Rel
Hum
%
Delta-T
°C
Wind Press
QNH
hPa
Press
MSL
hPa
Rain
since 9 am
mm
Dir
 
Spd
km/h
Gust
km/h
Spd
kts
Gust
kts
02/10:30am 25.9 27.5 23.2 85 1.8 SSE 20 35 11 19 1015.1 1014.9 0.0
02/10:00am 25.4 27.2 23.6 90 1.2 S 20 32 11 17 1014.8 1014.6 0.0
02/09:30am 24.3 26.1 23.3 94 0.7 S 19 26 10 14 1014.7 1014.5 0.0
02/09:00am 23.8 25.4 22.9 95 0.6 S 19 28 10 15 1014.1 1013.9 1.0
02/08:30am 23.2 25.1 22.7 97 0.3 S 17 26 9 14 1013.7 1013.5 1.0
02/08:00am 22.9 24.6 22.4 97 0.3 S 17 28 9 15 1013.4 1013.2 1.0
02/07:30am 22.9 25.8 22.4 97 0.3 SSW 11 19 6 10 1013.1 1012.9 1.0
02/07:00am 23.1 25.0 22.8 98 0.2 SSW 17 24 9 13 1013.1 1012.9 1.0
02/06:30am 23.7 25.2 23.0 96 0.5 SE 20 28 11 15 1012.6 1012.4 1.0
02/06:00am 23.3 26.3 23.3 100 0.0 SSE 13 20 7 11 1012.3 1012.2 1.0
02/05:30am 22.8 24.2 22.8 100 0.0 SE 20 28 11 15 1011.9 1011.8 1.0
02/05:00am 22.8 22.3 22.8 100 0.0 SE 30 41 16 22 1011.3 1011.2 1.0
02/04:38am 22.7 20.4 22.7 100 0.0 SE 39 57 21 31 1011.3 1011.2 1.0
02/04:30am 22.7 19.1 22.7 100 0.0 SE 46 57 25 31 1011.1 1011.0 1.0
02/04:15am 23.8 23.5 23.8 100 0.0 SSE 32 54 17 29 1010.8 1010.7 1.0
02/04:09am 23.9 24.4 23.9 100 0.0 S 28 48 15 26 1010.7 1010.6 1.0
02/04:00am 23.5 24.1 23.5 100 0.0 S 26 39 14 21 1010.7 1010.6 1.0
02/03:30am 23.6 25.6 23.6 100 0.0 SSE 19 33 10 18 1010.5 1010.4 1.0
02/03:00am 23.0 26.2 23.0 100 0.0 S 11 17 6 9 1010.7 1010.6 1.0
02/02:30am 23.4 27.6 23.4 100 0.0 SW 7 9 4 5 1010.6 1010.5 1.0
02/02:00am 23.6 29.2 23.6 100 0.0 CALM 0 6 0 3 1010.5 1010.4 1.0
02/01:30am 23.5 29.1 23.5 100 0.0 CALM 0 0 0 0 1010.4 1010.3 1.0
02/01:00am 23.4 28.1 23.4 100 0.0 SSW 4 9 2 5 1010.7 1010.6 1.0
02/12:30am 23.1 27.3 23.1 100 0.0 WNW 6 7 3 4 1010.8 1010.7 1.0
02/12:00am 23.0 27.1 23.0 100 0.0 NNW 6 7 3 4 1010.8 1010.7 1.0
 
Date/Time
EDT
Temp
°C
App
Temp
°C
Dew
Point
Rel
Hum
%
Delta-T
°C
Wind Press
QNH
hPa
Press
MSL
hPa
Rain
since 9 am
mm
Dir
 
Spd
km/h
Gust
km/h
Spd
kts
Gust
kts
01/11:30pm 23.1 27.1 23.1 100 0.0 NNW 7 9 4 5 1010.6 1010.5 1.0
01/11:00pm 23.4 27.6 23.4 100 0.0 NNW 7 9 4 5 1010.5 1010.4 1.0
01/10:30pm 23.5 27.7 23.5 100 0.0 NNW 7 11 4 6 1010.4 1010.3 1.0
01/10:00pm 23.6 27.5 23.6 100 0.0 NNW 9 17 5 9 1010.2 1010.1 1.0
01/09:30pm 23.7 27.7 23.7 100 0.0 NNW 9 13 5 7 1009.8 1009.7 1.0
01/09:00pm 24.1 28.7 24.1 100 0.0 NNW 7 15 4 8 1009.3 1009.2 1.0
01/08:30pm 24.0 28.5 24.0 100 0.0 N 7 11 4 6 1008.6 1008.5 1.0
01/08:00pm 24.0 27.8 24.0 100 0.0 NNW 11 24 6 13 1008.2 1008.1 0.8
01/07:30pm 24.3 27.9 24.3 100 0.0 N 13 20 7 11 1007.4 1007.3 0.8
01/07:00pm 24.4 28.0 24.4 100 0.0 N 13 24 7 13 1007.7 1007.6 0.8
01/06:30pm 24.9 28.9 24.4 97 0.3 N 11 20 6 11 1007.7 1007.6 0.6
01/06:00pm 25.5 28.3 23.7 90 1.2 N 15 26 8 14 1008.0 1007.9 0.0
01/05:30pm 25.8 28.3 23.8 89 1.4 N 17 24 9 13 1007.4 1007.3 0.0
01/05:00pm 26.1 28.9 23.6 86 1.7 NNE 15 28 8 15 1007.3 1007.2 0.0
01/04:30pm 26.9 29.5 24.0 84 2.0 N 17 28 9 15 1007.2 1007.1 0.0
01/04:00pm 29.0 32.4 25.2 80 2.7 N 17 28 9 15 1007.0 1006.9 0.0
01/03:30pm 28.4 31.1 24.2 78 2.9 NNE 17 26 9 14 1007.5 1007.4 0.0
01/03:00pm 28.8 32.4 25.0 80 2.7 NNE 15 30 8 16 1007.9 1007.8 0.0
01/02:30pm 28.3 31.7 24.1 78 2.9 NNE 13 24 7 13 1008.1 1008.0 0.0
01/02:00pm 29.2 33.7 25.2 79 2.8 NNE 11 20 6 11 1008.5 1008.4 0.0
01/01:30pm 29.0 33.5 25.2 80 2.7 NNE 11 19 6 10 1008.9 1008.8 0.0
01/01:00pm 28.7 33.1 24.5 78 2.9 NNE 9 15 5 8 1009.4 1009.3 0.0
01/12:30pm 28.8 33.5 25.0 80 2.7 NNE 9 17 5 9 1009.8 1009.7 0.0
01/12:00pm 28.9 33.3 24.5 77 3.1 NE 9 15 5 8 1010.1 1010.0 0.0
01/11:30am 29.7 34.4 25.0 76 3.3 N 9 11 5 6 1010.5 1010.4 0.0
01/11:00am 28.7 32.6 23.6 74 3.5 NW 9 13 5 7 1010.8 1010.7 0.0
01/10:30am 28.1 31.9 23.5 76 3.2 NW 9 15 5 8 1010.9 1010.8 0.0
01/10:00am 27.5 31.7 24.1 82 2.4 NW 9 15 5 8 1010.8 1010.7 0.0
01/09:30am 26.1 30.4 23.6 86 1.7 NW 7 11 4 6 1010.8 1010.7 0.0
01/09:00am 25.2 29.2 23.8 92 1.0 NW 9 13 5 7 1010.8 1010.7 0.0
01/08:30am 23.8 27.3 22.8 94 0.7 NW 9 15 5 8 1010.7 1010.6 0.0
01/08:00am 22.9 26.2 22.6 98 0.2 WNW 9 13 5 7 1010.6 1010.5 0.0
01/07:30am 22.3 24.7 22.3 100 0.0 NW 13 17 7 9 1010.5 1010.4 0.0
01/07:00am 21.7 24.9 21.7 100 0.0 NNW 7 11 4 6 1010.2 1010.1 0.0
01/06:30am 21.6 24.4 21.6 100 0.0 NNW 9 13 5 7 1009.9 1009.8 0.0
01/06:00am 21.8 24.7 21.8 100 0.0 NNW 9 13 5 7 1009.7 1009.6 0.0
01/05:30am 22.0 25.0 22.0 100 0.0 NW 9 11 5 6 1009.7 1009.6 0.0
01/05:00am 22.0 25.0 22.0 100 0.0 NNW 9 13 5 7 1009.5 1009.4 0.0
01/04:30am 22.1 25.0 21.8 98 0.2 NNW 9 11 5 6 1009.4 1009.3 0.0
01/04:00am 22.5 25.7 22.3 99 0.1 NNW 9 13 5 7 1009.6 1009.5 0.0
01/03:30am 22.5 25.6 22.2 98 0.2 NNW 9 11 5 6 1009.8 1009.7 0.0
01/03:00am 22.8 26.1 22.5 98 0.2 NNW 9 13 5 7 1010.0 1009.9 0.0
01/02:30am 22.8 26.0 22.3 97 0.3 N 9 13 5 7 1010.2 1010.1 0.0
01/02:00am 23.1 26.3 22.4 96 0.5 NNW 9 15 5 8 1010.5 1010.4 0.0
01/01:30am 23.4 26.9 22.9 97 0.3 NNW 9 15 5 8 1010.8 1010.7 0.0
01/01:00am 23.5 27.0 22.8 96 0.5 NNW 9 15 5 8 1011.0 1010.9 0.0
01/12:30am 24.0 27.6 23.0 94 0.7 NNW 9 13 5 7 1011.2 1011.1 0.0
01/12:00am 24.2 27.8 23.0 93 0.8 NNW 9 19 5 10 1011.3 1011.2 0.0
 
Date/Time
EDT
Temp
°C
App
Temp
°C
Dew
Point
Rel
Hum
%
Delta-T
°C
Wind Press
QNH
hPa
Press
MSL
hPa
Rain
since 9 am
mm
Dir
 
Spd
km/h
Gust
km/h
Spd
kts
Gust
kts
28/11:30pm 24.4 27.7 22.5 89 1.3 N 9 17 5 9 1011.2 1011.1 0.0
28/11:00pm 24.7 27.4 22.8 89 1.3 NNE 13 20 7 11 1011.2 1011.1 0.0
28/10:30pm 24.8 28.4 23.0 90 1.2 N 9 20 5 11 1011.6 1011.5 0.0
28/10:00pm 24.8 28.3 22.9 89 1.3 NNW 9 17 5 9 1011.5 1011.4 0.0
28/09:30pm 24.7 27.4 22.2 86 1.7 N 11 22 6 12 1011.2 1011.1 0.0
28/09:00pm 24.8 27.2 22.3 86 1.7 N 13 24 7 13 1010.7 1010.6 0.0
28/08:30pm 24.9 27.6 22.8 88 1.4 N 13 20 7 11 1010.5 1010.4 0.0
28/08:00pm 25.0 27.6 22.7 87 1.6 N 13 17 7 9 1010.1 1010.0 0.0
28/07:30pm 25.1 28.1 22.6 86 1.7 NNE 11 24 6 13 1009.9 1009.8 0.0
28/07:00pm 25.3 27.9 22.6 85 1.8 NNE 13 24 7 13 1009.6 1009.5 0.0
28/06:30pm 25.7 28.2 22.4 82 2.2 NNE 13 24 7 13 1009.5 1009.4 0.0
28/06:00pm 26.2 28.7 22.5 80 2.5 NE 13 22 7 12 1009.3 1009.2 0.0
28/05:30pm 26.6 29.5 23.1 81 2.4 NE 13 22 7 12 1009.1 1009.0 0.0
28/05:00pm 27.1 30.1 23.3 80 2.6 NE 13 20 7 11 1009.1 1009.0 0.0
28/04:30pm 27.3 30.2 23.1 78 2.9 NE 13 20 7 11 1009.0 1008.9 0.0
28/04:00pm 27.9 31.3 24.1 80 2.6 NE 13 24 7 13 1009.1 1009.0 0.0
28/03:30pm 27.6 30.6 24.0 81 2.5 ENE 15 22 8 12 1009.2 1009.1 0.0
28/03:00pm 27.4 30.2 23.6 80 2.6 ENE 15 22 8 12 1009.6 1009.5 0.0
28/02:30pm 27.8 31.2 24.6 83 2.2 ENE 15 24 8 13 1009.9 1009.8 0.0
28/02:00pm 26.7 29.6 23.2 81 2.4 ENE 13 19 7 10 1010.2 1010.1 0.0
28/01:30pm 27.7 31.1 24.1 81 2.5 ENE 13 20 7 11 1010.3 1010.2 0.0
28/01:00pm 27.7 31.5 24.7 84 2.1 ENE 13 19 7 10 1010.6 1010.5 0.0
28/12:30pm 27.7 31.5 24.7 84 2.1 ENE 13 17 7 9 1011.0 1010.9 0.0
28/12:00pm 27.2 31.1 24.3 84 2.0 ENE 11 15 6 8 1011.3 1011.2 0.0
28/11:30am 26.9 31.5 24.7 88 1.5 ENE 9 13 5 7 1011.3 1011.2 0.0
28/11:00am 26.4 30.6 24.1 87 1.6 ENE 9 13 5 7 1011.6 1011.5 0.0
28/10:30am 26.1 30.5 23.8 87 1.6 NE 7 11 4 6 1011.7 1011.6 0.0
28/10:00am 26.5 31.5 24.5 89 1.4 NW 6 9 3 5 1011.6 1011.5 0.0
28/09:30am 25.7 30.5 24.1 91 1.1 WNW 6 7 3 4 1011.6 1011.5 0.0
28/09:00am 24.4 28.9 23.7 96 0.5 SSW 6 7 3 4 1011.2 1011.1 0.2
28/08:30am 23.5 27.8 23.3 99 0.1 SW 6 7 3 4 1011.1 1011.0 0.2
28/08:00am 23.1 27.1 23.1 100 0.0 SSW 7 9 4 5 1011.0 1010.9 0.2
28/07:30am 22.4 26.0 22.4 100 0.0 SW 7 11 4 6 1010.6 1010.5 0.2
28/07:00am 22.1 25.7 22.1 100 0.0 WSW 6 9 3 5 1010.4 1010.3 0.2
28/06:30am 22.0 25.4 22.0 100 0.0 SW 7 9 4 5 1010.1 1010.0 0.2
28/06:00am 22.1 25.6 22.1 100 0.0 WSW 7 11 4 6 1009.9 1009.8 0.2
28/05:30am 22.5 26.2 22.5 100 0.0 W 7 11 4 6 1009.6 1009.5 0.2
28/05:00am 22.7 27.8 22.7 100 0.0 CALM 0 0 0 0 1009.5 1009.4 0.2
28/04:30am 22.6 27.5 22.4 99 0.1 CALM 0 0 0 0 1009.4 1009.3 0.2
28/04:00am 23.0 27.9 23.0 100 0.0 SSE 2 7 1 4 1009.5 1009.4 0.2
28/03:30am 23.1 27.8 22.6 97 0.3 ENE 2 9 1 5 1009.6 1009.5 0.0
28/03:00am 23.0 27.5 22.2 95 0.5 NNE 2 6 1 3 1010.0 1009.9 0.0
28/02:30am 22.9 25.9 21.9 94 0.7 N 9 17 5 9 1010.2 1010.1 0.0
28/02:00am 23.9 29.2 23.0 95 0.6 CALM 0 0 0 0 1010.1 1010.0 0.0
28/01:30am 23.8 29.0 22.8 94 0.7 CALM 0 6 0 3 1010.3 1010.2 0.0
28/01:00am 23.8 27.8 22.8 94 0.7 NW 6 11 3 6 1010.3 1010.2 0.0
28/12:30am 24.2 28.3 23.0 93 0.8 NNW 6 9 3 5 1010.4 1010.3 0.0
28/12:00am 24.3 28.2 22.9 92 0.9 N 7 11 4 6 1010.6 1010.5 0.0
 
Date/Time
EDT
Temp
°C
App
Temp
°C
Dew
Point
Rel
Hum
%
Delta-T
°C
Wind Press
QNH
hPa
Press
MSL
hPa
Rain
since 9 am
mm
Dir
 
Spd
km/h
Gust
km/h
Spd
kts
Gust
kts
27/11:30pm 24.5 28.2 22.6 89 1.3 N 7 13 4 7 1010.4 1010.3 0.0
27/11:00pm 24.7 28.2 22.8 89 1.3 NNE 9 17 5 9 1010.4 1010.3 0.0
27/10:30pm 24.9 27.9 22.6 87 1.5 N 11 17 6 9 1010.3 1010.2 0.0
27/10:00pm 25.1 28.7 23.0 88 1.4 NE 9 15 5 8 1010.2 1010.1 0.0
27/09:30pm 25.1 28.2 22.8 87 1.6 NE 11 17 6 9 1009.8 1009.7 0.0
27/09:00pm 25.0 28.0 22.7 87 1.6 NNE 11 19 6 10 1009.5 1009.4 0.0
27/08:30pm 25.2 28.2 22.7 86 1.7 NNE 11 17 6 9 1009.5 1009.4 0.0
27/08:00pm 25.3 28.3 22.6 85 1.8 NE 11 17 6 9 1009.1 1009.0 0.0
27/07:30pm 25.3 28.2 22.4 84 1.9 NE 11 20 6 11 1008.8 1008.7 0.0
27/07:00pm 25.5 28.7 23.0 86 1.7 NE 11 20 6 11 1008.4 1008.3 0.0
27/06:30pm 25.6 28.5 23.1 86 1.7 NE 13 19 7 10 1008.0 1007.9 0.0
27/06:00pm 25.7 28.7 23.4 87 1.6 NE 13 19 7 10 1007.6 1007.5 0.0
27/05:30pm 25.9 28.8 23.2 85 1.8 NE 13 19 7 10 1007.5 1007.4 0.0
27/05:00pm 26.2 29.3 22.9 82 2.2 NE 11 19 6 10 1007.2 1007.1 0.0
27/04:30pm 26.4 29.3 23.1 82 2.2 NNE 13 20 7 11 1007.0 1006.9 0.0
27/04:00pm 26.4 29.4 22.7 80 2.5 NE 11 17 6 9 1007.0 1006.9 0.0
27/03:30pm 27.6 30.3 23.4 78 2.9 ENE 15 22 8 12 1006.9 1006.8 0.0
27/03:00pm 27.9 31.0 23.5 77 3.0 NE 13 19 7 10 1007.1 1007.0 0.0
27/02:30pm 28.2 31.3 22.9 73 3.6 ENE 11 17 6 9 1007.3 1007.2 0.0
27/02:00pm 29.4 33.4 23.8 72 3.9 N 9 15 5 8 1007.5 1007.4 0.0
27/01:30pm 30.2 34.4 24.1 70 4.2 NNW 9 13 5 7 1007.9 1007.8 0.0
27/01:00pm 28.9 32.1 22.4 68 4.4 NW 9 15 5 8 1008.2 1008.1 0.0
27/12:30pm 28.6 32.8 23.5 74 3.5 N 7 11 4 6 1008.6 1008.5 0.0
27/12:00pm 28.6 33.1 24.6 79 2.8 N 9 19 5 10 1008.8 1008.7 0.0
27/11:30am 27.6 31.9 24.2 82 2.4 NNE 9 17 5 9 1009.0 1008.9 0.0
27/11:00am 27.7 31.8 23.9 80 2.6 N 9 19 5 10 1009.3 1009.2 0.0

Other Formats:

Comma delimited format used in spreadsheet applications
http://www.bom.gov.au/fwo/IDN60801/IDN60801.94589.axf

JavaScript Object Notation format (JSON) in row-major order
http://www.bom.gov.au/fwo/IDN60801/IDN60801.94589.json